{"data":{"norad_id":60996,"intl_designator":"2024-158G","name":"STARLINK-11281 [DTC]","alt_names":[],"object_type":"PAYLOAD","status":"ACTIVE","operator":null,"country":"US","launch_date":"2024-09-05","launch_site_code":"AFETR","launch_vehicle":null,"mission":null,"orbit_class":"UNKNOWN","rcs_meters":null,"size_class":null,"mass_kg":null,"dimensions":null,"purposes":["comms"],"wikipedia_slug":null,"has_3d_model":false,"image_url":null,"decayed_at":null,"tle_current":{"epoch":"2026-09-21T20:45:07.235712Z","epoch_age_seconds":74720,"freshness":"FRESH","line1":"1 60996U 24158G   26264.86466708  .00000115  00000+0  58040-5 0  9993","line2":"2 60996  53.1599  34.3719 0001067 131.8141 228.2968 15.69707602118396","mean_motion":15.69707602,"eccentricity":0.0001067,"inclination_deg":53.1599,"raan_deg":34.3719,"arg_perigee_deg":131.8141,"mean_anomaly_deg":228.2968,"bstar":5.804e-6,"rev_number":11839,"period_min":91.736830360334,"perigee_km":359.01468179225,"apogee_km":360.45254338097,"semimajor_km":6737.8706125866,"source":"CELESTRAK","updated_at":"2026-09-22T09:00:49.295446Z"}}}